Погода в Алекине

Россия / Калужская область     54°39′44″N   37°10′20″E
темп.,
°C
ветер,
м/с
пор.,
м/с
влажн.,
%
обл.,
%
осадки,
мм/ч
давл.,
гПа
погр.,
м
7 мая, пт
пт700:00+7юз41192100 0.0 1009467
03:00+5зюз3994100 0.0 1010332
06:00+5юз3109043 0.0 1011391
09:00+9зюз57635 0.0 1012900
12:00+12зюз584431 0.0 10132144
15:00+14юз584393 0.0 10132290
18:00+12ююз61058100 0.0 1012557
21:00+8ююв3107410 0.0 1013206
8 мая, сб
сб800:00+8ююв61563100 0.0 1012446
03:00+8ююв61573100 0.4 1010732
06:00+7ююв71689100 3.6 1007763
09:00+8ююв81593100 7.6 10051026
12:00+8ю81595100 5.6 1003747
15:00+9юз5896100 8.9 1002513
18:00+9зюз51192100 0.1 1004651
21:00+6зюз5109142 1.3 1005320
9 мая, вс
вс900:00+4з61295100 0.4 1009870
03:00+4з6118599 0.4 1012854
06:00+3з5109440 0.0 1015550
09:00+5зсз6980100 0.1 10171094
12:00+8сз586185 0.1 10191696
15:00+10сз585231 0.1 10201807
18:00+10ссз37625 0.3 10221376
21:00+5зсз22730 0.3 102515
10 мая, пн
пн1000:00+3зсз227332 0.0 102712
03:00+2зсз22815 0.0 102917
06:00+4зсз117829 0.0 103027
09:00+10зсз22585 0.0 1031393
12:00+14зюз22455 0.0 10311428
15:00+15з22445 0.0 10301682
18:00+15зюз11555 0.0 10301188
21:00+9юз11705 0.0 103110
11 мая, вт
вт1100:00+8ююв11760 0.0 103110
03:00+7ююз11765 0.0 103210
06:00+8ююв11755 0.0 103312
09:00+13вюв236142 0.0 1033421
12:00+16вюв34515 0.0 10311053
15:00+17вюв345010 0.0 10301229
18:00+16в356426 0.0 1029377
21:00+11вюв338085 0.0 102923